Temp
18 18 18 19 19 19 19 19 19 19 19 19 19 19 20 20 20 20 20 20 20 20 20 20 20 20 20 20 20 20 20 19 19 19 18 18 18 18 18 18 18 17 17 17 16 16 16 16 16 15 14 13 13 14 14 14 14 14 14 14 13 12 12 11 11 12 12 12 12
18 18 18 18 18 18 19 19 19 19 19 19 19 19 19 19 19 19 19 19 20 20 20 20 20 20 20 20 20 19 19 19 18 18 17 17 18 18 18 18 17 17 16 16 16 16 16 16 15 15 15 14 14 14 14 14 14 13 13 12 12 11 11 11 11 11 11 11 11
18 18 18 18 18 18 18 18 18 18 19 19 19 19 19 19 19 19 19 19 19 19 19 19 19 19 19 19 19 19 19 18 18 17 17 17 17 18 17 17 17 16 16 16 16 15 15 15 15 15 14 14 14 14 13 13 13 12 12 11 11 11 11 11 11 11 11 11 11
18 18 18 18 18 18 18 18 18 18 18 18 18 18 18 19 19 19 19 19 19 19 19 19 19 19 19 19 19 19 18 18 17 17 17 17 17 17 17 16 16 16 16 16 15 15 15 14 14 14 13 13 13 13 13 12 12 11 11 11 11 11 11 10 10 10 10 10 10
17 17 17 17 17 17 17 18 18 18 18 18 18 18 18 18 18 18 18 18 19 19 19 19 19 19 19 19 18 18 17 17 17 17 17 17 17 16 16 16 16 16 15 15 15 15 14 14 14 13 13 13 12 12 12 11 11 10 10 10 10 10 10 9 9 9 9 9 8
16 16 17 17 17 17 17 17 17 17 17 17 18 18 18 18 18 18 18 18 18 18 18 18 18 18 18 18 17 17 16 16 17 17 17 17 16 16 16 15 15 15 15 15 15 14 14 14 13 13 13 12 12 11 11 11 10 10 9 9 9 9 9 9 9 8 8 8 7
16 16 16 16 16 16 16 16 17 17 17 17 17 17 17 17 17 17 17 17 17 18 18 18 17 17 17 17 17 16 16 16 16 16 16 16 15 15 15 15 15 15 15 15 15 14 13 13 12 12 12 12 11 11 10 10 10 9 9 9 9 8 8 8 8 8 7 7 7
15 15 15 15 16 16 16 16 16 16 16 17 17 17 17 16 16 16 16 16 17 17 17 17 16 16 16 16 16 15 15 15 15 15 15 15 15 15 15 15 15 15 15 14 14 13 13 12 12 11 11 11 10 10 10 9 9 9 9 8 8 8 8 8 8 7 7 6 6
15 15 15 15 15 15 15 15 16 16 16 16 16 16 15 15 15 15 15 15 15 16 16 16 15 15 15 15 15 14 14 14 14 14 14 14 14 14 14 14 14 14 13 13 13 12 12 12 11 11 10 10 9 9 9 9 9 9 8 8 8 8 8 7 7 7 6 6 6
14 14 14 14 15 15 15 15 15 15 15 15 14 14 14 14 14 14 14 14 14 15 15 15 14 14 14 14 14 14 13 13 13 13 13 13 13 13 13 13 12 12 12 11 11 11 11 11 10 10 10 9 9 9 9 9 8 8 8 8 8 8 7 7 6 6 6 6 6
14 14 14 14 14 14 15 15 14 14 14 14 13 13 13 13 13 13 13 13 14 14 13 13 13 13 13 13 13 13 12 12 12 12 12 12 12 11 11 11 11 10 10 10 10 10 10 9 9 9 9 8 8 8 8 8 8 8 8 8 8 7 7 6 6 6 5 5 5
13 13 13 14 14 14 14 13 13 13 13 12 12 12 12 12 12 12 12 13 13 12 12 12 12 12 12 12 11 11 11 11 11 11 11 11 11 11 10 10 10 10 9 9 9 9 8 8 8 8 8 8 8 8 8 8 8 8 8 7 7 7 6 6 5 5 5 5 4
12 12 12 13 13 13 12 12 12 12 11 11 11 11 11 11 11 11 11 12 11 11 11 11 11 11 11 10 10 10 10 10 10 10 10 10 10 10 10 10 9 9 9 8 8 8 8 8 8 8 8 8 8 8 7 7 7 7 7 7 6 6 6 5 5 5 4 4 4
11 11 11 11 11 11 11 11 11 10 10 10 10 10 10 10 10 10 10 10 10 10 10 10 10 10 10 10 10 10 10 10 10 10 10 10 9 9 9 9 9 8 8 8 8 8 7 7 7 7 7 7 7 7 7 7 6 6 6 6 6 6 5 5 4 4 4 4 3
10 10 10 10 10 10 10 10 9 9 9 9 9 9 8 8 8 9 9 9 9 9 9 9 9 9 9 9 9 9 9 9 9 9 9 9 8 8 8 8 8 7 7 7 7 7 7 7 7 7 6 6 6 6 6 6 6 5 5 5 5 5 5 4 4 4 3 3 3
9 9 9 9 9 9 9 8 8 8 8 8 8 8 8 7 8 8 8 8 8 8 8 8 8 8 8 8 8 8 8 8 8 8 8 8 7 7 7 7 7 7 7 7 7 7 6 6 6 6 6 6 5 5 5 5 5 4 4 4 4 4 4 4 4 3 3 3 3
8 8 8 8 8 8 8 7 7 7 7 7 7 7 7 7 7 7 7 7 8 8 8 8 8 7 7 7 8 8 7 7 7 7 7 7 7 7 6 6 6 6 6 6 6 6 6 6 6 5 5 5 5 4 4 4 4 4 3 4 4 4 3 3 3 3 2 2 2
7 7 7 7 7 7 7 7 7 7 7 7 7 7 7 7 7 7 7 7 7 7 7 7 7 7 7 7 7 7 7 7 6 6 6 6 6 6 6 6 6 5 5 5 5 5 5 5 5 5 4 4 4 4 3 3 3 3 3 3 3 3 3 2 2 2 2 2 2
7 7 6 6 6 6 6 6 6 6 6 6 6 6 6 6 6 6 6 6 6 6 6 6 6 6 6 6 6 6 6 6 6 5 5 5 5 5 5 5 5 5 5 4 4 4 4 4 4 4 4 4 3 3 3 3 2 2 2 2 2 2 2 2 1 1 1 1 1
6 6 6 6 6 5 5 5 5 5 5 5 5 5 5 5 6 6 6 6 6 6 6 6 6 6 6 6 6 5 5 5 5 5 4 4 4 4 4 4 4 4 4 4 4 3 3 3 3 3 3 3 3 3 2 2 2 2 2 2 1 1 1 1 1 1 1 1 1
5 5 5 5 5 5 5 5 5 5 5 5 5 5 5 5 5 5 5 5 5 5 5 5 5 5 5 5 5 5 4 4 4 4 4 4 3 3 3 3 3 3 3 3 3 3 3 3 3 3 2 2 2 2 2 1 1 1 1 1 1 1 1 1 1 1 0 0 0
5 5 5 5 5 4 4 4 4 4 4 4 4 4 4 4 4 4 4 4 5 5 5 4 4 4 4 4 4 4 4 4 3 3 3 3 3 3 3 3 3 3 3 3 3 3 3 2 2 2 2 2 1 1 1 1 1 0 0 0 0 0 0 0 0 0 0 0 0
4 4 4 4 4 4 4 4 4 4 4 4 3 3 3 3 3 3 3 4 4 4 4 3 3 3 3 3 3 3 3 3 3 3 3 3 3 2 2 2 2 2 2 2 2 2 2 2 2 2 1 1 1 1 1 0 0 0 -0 -0 -0 -0 -0 0 0 0 0 0 0
4 4 4 4 3 3 3 3 3 3 3 3 3 3 3 3 3 3 3 3 3 3 3 2 2 2 2 2 2 3 3 2 2 2 2 2 2 2 2 2 2 2 2 2 2 2 2 2 1 1 1 1 1 0 0 0 -0 -0 -0 -0 -0 -0 -0 -0 -0 0 0 0 0
3 3 3 3 3 3 3 3 3 3 3 3 2 2 2 2 2 2 2 2 2 2 2 2 2 2 2 2 2 2 2 2 2 2 2 2 2 2 2 2 1 1 1 1 1 1 1 1 1 1 1 0 0 0 -0 -0 -0 -0 -0 -0 -0 -0 -0 -0 -0 0 0 0 0
3 3 3 3 3 3 3 3 3 3 2 2 2 2 2 2 2 2 2 2 2 2 1 1 1 2 2 2 2 2 2 1 1 1 1 1 1 1 1 1 1 1 2 1 1 1 1 1 1 1 1 0 0 -0 -0 -0 -0 -0 -0 -0 -0 0 0 0 0 0 0 0 0
3 3 3 3 3 3 3 2 2 2 2 2 2 2 2 2 2 2 2 2 2 1 1 1 1 1 1 2 1 1 1 1 1 1 1 1 1 1 1 1 1 1 1 1 1 1 1 1 1 1 1 0 0 -0 -0 -0 -0 -0 -0 -0 0 0 0 0 0 0 0 0 0
3 3 3 3 2 2 2 2 2 2 2 2 2 2 2 2 2 2 2 1 1 1 1 1 1 1 1 1 1 1 1 1 1 1 1 1 1 1 1 1 1 1 1 1 1 1 1 0 0 0 1 1 0 0 0 -0 -0 -0 -0 -0 0 0 0 0 0 0 0 0 0
2 2 2 2 2 2 2 2 2 2 2 2 2 2 2 2 2 2 1 1 1 1 1 1 1 1 1 1 1 2 1 1 1 1 1 1 1 1 1 1 1 1 1 1 1 1 0 0 0 0 0 1 0 0 0 0 0 -0 -0 -0 -0 0 0 0 0 0 0 0 -0
2 2 2 2 2 2 2 2 2 2 2 2 2 2 2 1 1 1 1 1 1 1 1 1 1 1 1 1 1 1 1 1 1 1 1 1 1 1 1 1 1 1 1 1 1 0 0 -0 -0 -0 0 0 0 0 0 -0 -0 -0 -0 -0 -0 -0 -0 -0 -0 -0 -1 -1 -1
2 2 2 2 2 2 2 2 2 2 2 2 1 1 1 1 1 1 1 1 1 1 1 1 1 1 1 1 1 1 1 1 1 1 1 0 0 0 0 0 1 1 1 0 0 0 -0 -0 -0 -0 0 0 0 0 0 0 -0 -0 -0 -0 -0 -0 -0 -0 -1 -1 -1 -1 -1
1 1 1 1 1 1 1 1 1 1 1 1 1 1 1 1 1 1 1 1 1 1 1 1 1 1 1 1 1 1 1 0 0 0 0 0 0 0 0 0 0 0 0 0 -0 -0 -0 -0 -0 -0 0 0 0 0 0 0 0 0 -0 -0 -0 -1 -1 -1 -1 -1 -1 -1 -1
1 1 1 1 1 1 1 1 1 1 1 1 1 1 1 1 1 1 1 1 1 1 1 1 1 1 0 0 0 0 0 0 -0 -0 -0 -0 -0 -0 -0 0 0 0 0 -0 -0 -1 -1 -0 -0 -0 0 0 0 0 0 0 -0 -0 -1 -1 -1 -1 -1 -1 -2 -2 -2 -2 -2
1 1 1 1 1 1 1 1 1 1 1 1 1 1 1 1 1 1 1 1 1 1 1 1 1 0 0 0 0 0 -0 -0 -0 -1 -1 -1 -1 -1 -1 -0 -0 -0 -0 -0 -1 -1 -1 -1 -0 -0 -0 -0 -0 -0 -0 -1 -1 -1 -1 -2 -2 -2 -2 -2 -2 -2 -2 -2 -2
1 1 1 1 1 1 1 1 1 1 1 1 1 1 1 1 1 1 1 1 1 1 0 0 0 0 0 0 1 1 0 0 -0 -0 -1 -1 -1 -1 -1 -1 -1 -1 -1 -1 -1 -1 -1 -1 -1 -1 -1 -1 -1 -1 -1 -1 -1 -2 -2 -2 -2 -2 -2 -2 -3 -3 -3 -3 -3
1 1 1 1 1 1 1 1 0 0 0 0 0 0 0 0 0 0 0 1 0 0 0 0 0 0 0 0 0 0 0 0 -0 -0 -0 -0 -0 -1 -1 -1 -1 -1 -1 -1 -1 -1 -1 -1 -1 -1 -1 -1 -1 -1 -1 -2 -2 -2 -2 -2 -3 -3 -3 -3 -3 -3 -3 -3 -3
1 0 0 0 0 0 0 0 0 0 0 0 0 0 0 0 0 0 0 0 0 0 -0 0 0 0 0 -0 -0 -0 -0 -0 -0 -0 -1 -1 -1 -1 -1 -1 -1 -2 -1 -1 -1 -1 -1 -1 -1 -1 -1 -1 -1 -2 -2 -2 -2 -2 -2 -3 -3 -3 -3 -3 -3 -3 -2 -2 -2
0 0 0 0 0 0 0 -0 -0 -0 -0 -0 -0 -0 -0 -0 -0 0 0 0 0 -0 -0 -0 -0 -0 -0 -0 -0 -0 -1 -1 -0 -0 -1 -1 -1 -1 -1 -1 -1 -1 -1 -1 -1 -1 -1 -1 -1 -1 -1 -1 -2 -2 -2 -2 -2 -2 -2 -2 -2 -2 -2 -3 -3 -3 -2 -2 -2
-0 -0 -0 -0 -0 -0 -0 -0 -0 -0 -0 -0 -0 -0 -0 -0 -0 -0 -0 0 0 -0 -0 -1 -1 -0 -0 0 -0 -0 -1 -1 -1 -1 -1 -1 -1 -1 -1 -1 -1 -1 -1 -1 -1 -1 -1 -2 -2 -2 -2 -2 -2 -2 -2 -2 -2 -2 -2 -2 -2 -2 -2 -2 -2 -3 -3 -3 -3
-1 -1 -1 -1 -1 -1 -1 -1 -0 -0 -0 -0 -0 -0 -0 -0 -0 -0 -0 -0 -0 -0 -0 -1 -1 -0 -0 0 0 -0 -0 -1 -1 -1 -1 -1 -1 -1 -1 -1 -1 -2 -2 -1 -1 -1 -1 -2 -2 -2 -2 -2 -2 -2 -2 -2 -2 -2 -2 -2 -2 -2 -2 -2 -2 -2 -2 -3 -3
-1 -1 -1 -1 -1 -1 -1 -1 -1 -1 -1 -1 -1 -0 -0 -0 -1 -1 -1 -1 -1 -1 -1 -1 -1 -1 -0 -0 -0 -0 -1 -1 -1 -1 -1 -1 -1 -1 -1 -1 -2 -2 -2 -2 -1 -1 -1 -1 -1 -1 -1 -1 -1 -1 -1 -1 -2 -2 -2 -2 -2 -2 -2 -2 -2 -2 -2 -2 -2
Height
779 779 779 779 779 779 779 779 779 779 779 779 779 780 780 780 781 781 782 782 782 783 783 783 784 784 784 785 785 785 785 785 786 786 786 787 787 787 787 786 786 786 787 787 787 787 788 788 788 789 790 791 790 789 789 788 788 788 788 788 788 789 791 791 791 792 794 795 796
779 779 779 779 779 779 779 779 779 779 779 779 780 780 780 780 780 781 781 781 782 782 782 783 783 783 783 784 784 784 784 784 784 785 785 786 786 785 785 785 785 786 786 787 787 787 787 787 788 788 788 788 788 788 787 787 787 787 787 788 788 789 790 791 791 791 792 793 793
779 779 779 779 779 779 779 779 779 779 779 779 780 780 780 780 780 781 781 781 781 782 782 782 782 782 783 783 783 783 783 783 783 783 784 784 784 784 784 784 785 785 785 785 785 786 786 786 787 787 787 787 787 787 786 786 787 787 787 788 788 789 790 791 791 791 791 791 790
779 779 779 779 779 779 779 779 779 779 779 780 780 780 780 780 780 781 781 781 781 781 782 782 782 782 782 782 782 782 782 782 782 782 783 783 783 783 784 784 784 784 784 784 784 785 785 785 786 786 786 786 786 786 786 786 786 787 787 788 788 789 790 790 790 790 790 789 789
780 779 779 779 779 779 779 779 779 779 779 779 780 780 780 780 780 780 781 781 781 781 782 782 782 782 782 782 782 782 782 782 782 782 782 782 783 783 783 783 783 784 784 784 784 784 784 785 785 785 785 785 785 785 785 785 786 787 787 787 788 788 788 789 789 789 789 789 789
780 780 780 780 780 779 779 779 779 779 780 780 780 780 780 780 780 780 781 781 781 781 781 781 781 781 781 781 781 782 782 782 782 782 782 782 782 782 782 782 782 783 783 783 783 783 784 784 784 784 784 784 784 784 784 784 785 786 786 786 787 787 787 787 787 788 788 789 789
780 780 780 780 780 780 780 780 780 780 780 780 780 780 780 780 780 780 780 781 781 781 781 781 781 780 780 780 781 781 782 781 781 781 781 781 781 781 781 782 782 782 782 782 782 782 783 783 783 783 783 784 784 783 784 784 784 785 785 785 786 786 786 787 787 787 787 787 788
781 780 780 780 780 780 780 780 780 780 780 781 781 780 780 780 780 780 780 780 780 780 780 780 780 779 779 780 780 781 781 781 781 780 780 780 780 781 781 781 781 781 781 781 781 782 782 782 783 783 783 783 783 783 783 783 783 784 784 785 785 785 786 786 786 786 786 786 786
781 781 781 781 781 780 780 780 781 781 780 780 780 780 780 779 780 780 780 780 780 780 780 780 779 779 779 779 780 780 780 780 780 780 780 780 780 780 780 780 781 781 781 780 781 781 781 782 782 782 782 782 782 782 782 783 783 783 783 784 784 784 785 785 785 785 785 785 784
781 781 781 781 781 781 781 781 780 780 780 780 779 779 779 779 779 780 780 780 780 780 780 779 779 779 779 779 779 779 779 779 779 779 779 780 780 780 780 780 780 780 780 780 780 781 781 781 781 781 782 782 782 782 782 782 782 782 782 782 783 783 784 784 784 784 784 784 783
782 781 781 781 781 781 780 780 780 779 779 779 779 779 779 779 779 780 780 780 780 779 779 779 779 779 779 779 779 779 779 779 779 779 779 779 779 780 780 780 780 781 781 781 781 781 781 781 781 781 781 782 782 782 782 782 782 781 781 781 781 782 782 783 783 784 784 784 783
782 781 781 781 781 780 780 779 779 779 779 779 779 779 779 779 779 779 779 779 779 779 779 779 779 779 779 779 779 779 779 779 779 779 780 780 780 780 780 781 781 781 781 781 781 781 781 781 781 781 782 782 782 782 782 782 781 780 780 779 779 780 781 782 783 783 784 784 784
781 781 781 781 780 780 779 779 779 779 780 779 779 779 779 779 779 779 779 779 779 779 779 779 779 779 779 779 779 780 780 780 780 780 780 780 780 780 780 781 781 781 781 781 781 781 782 782 782 782 782 782 782 782 782 782 782 781 779 778 777 777 779 781 782 783 784 784 784
781 781 781 781 780 780 780 780 780 780 780 780 780 780 780 779 779 779 779 779 779 779 779 779 779 779 779 780 780 780 780 780 780 780 780 780 780 780 781 781 781 781 782 782 782 782 782 782 782 782 782 783 783 783 783 783 783 782 780 778 777 776 777 778 781 782 783 784 784
782 781 781 781 781 780 780 780 780 780 780 780 780 780 780 780 780 779 779 779 779 779 779 779 780 780 780 780 780 780 780 780 780 780 780 780 781 781 781 781 782 782 782 782 782 782 782 782 782 783 783 783 783 784 784 784 784 783 782 780 777 776 776 777 780 782 783 784 784
782 782 782 781 781 781 781 781 781 781 780 780 780 780 780 780 780 780 780 780 780 780 780 780 780 780 780 780 780 780 780 780 780 780 781 781 781 781 782 782 782 782 782 782 782 782 782 782 782 783 784 784 784 785 785 785 785 784 783 781 779 777 776 777 779 782 783 784 784
782 782 782 782 782 781 781 781 781 781 781 781 781 781 781 781 781 781 780 780 780 780 780 780 780 780 780 780 780 780 780 780 781 781 781 781 782 782 782 782 782 782 782 782 782 782 782 782 782 783 784 784 785 786 786 786 786 785 784 782 780 778 778 779 780 782 783 784 784
783 783 782 782 782 782 782 782 782 782 782 781 781 781 781 781 781 781 780 780 780 780 780 780 780 780 780 780 780 781 781 781 781 781 782 782 782 782 782 782 782 782 782 782 782 782 782 782 782 783 784 785 786 786 787 787 787 786 785 783 781 780 780 781 782 783 784 785 785
783 783 783 783 783 783 782 782 782 782 782 782 782 782 782 781 781 781 781 780 780 780 780 780 780 780 780 781 781 781 781 781 781 782 782 782 782 782 782 782 783 783 783 783 783 783 783 783 783 783 784 785 786 787 787 787 787 787 786 784 783 782 782 782 783 784 785 785 786
784 784 783 783 783 783 783 783 782 782 782 782 782 782 782 782 781 781 781 781 781 781 781 781 781 781 781 781 781 781 782 782 782 782 782 782 783 783 783 783 783 783 783 783 783 783 783 783 783 784 784 785 786 787 787 788 788 787 787 785 784 784 784 784 785 785 786 786 787
784 784 784 784 784 784 783 783 783 783 783 783 783 782 782 782 782 781 781 781 781 781 781 781 781 781 781 781 781 782 782 782 782 783 783 783 783 784 784 784 784 784 784 784 784 784 784 784 784 785 785 786 786 787 788 788 788 788 787 786 785 785 785 785 786 786 787 787 788
785 785 785 784 784 784 784 784 784 784 783 783 783 782 782 782 782 782 782 782 781 781 781 782 782 782 782 781 781 782 782 783 783 783 784 784 784 784 785 785 785 785 785 785 785 785 785 785 785 786 786 786 787 788 788 788 788 788 787 786 786 786 786 786 786 787 787 787 788
786 785 785 785 785 785 785 785 784 784 784 783 783 783 783 782 782 782 782 782 782 782 782 782 782 782 782 782 782 782 783 783 784 784 785 785 785 785 786 786 786 786 786 786 786 786 786 786 786 787 787 787 788 788 789 789 788 788 787 787 787 786 786 787 787 787 787 788 788
787 786 786 786 786 785 785 785 784 784 784 784 784 784 784 783 783 783 783 783 783 783 783 783 783 783 783 783 783 783 783 784 784 785 785 786 786 786 787 787 787 787 787 787 787 787 787 787 787 787 787 788 789 789 789 789 789 789 789 788 788 787 787 787 787 787 788 788 788
787 787 787 786 786 786 786 785 785 785 785 785 785 785 785 785 785 784 784 784 784 784 784 784 784 783 783 784 784 784 784 785 785 786 786 787 787 787 787 787 788 788 788 789 789 788 788 788 788 788 788 789 789 790 790 790 790 790 789 789 789 788 788 788 788 788 788 788 789
787 787 787 787 787 786 786 786 786 786 786 786 786 786 786 786 786 786 786 786 786 785 785 785 785 785 785 785 785 785 785 786 786 787 787 787 788 788 788 789 789 789 790 790 790 790 789 789 789 789 789 789 790 790 791 791 791 791 790 790 789 789 788 788 788 788 789 789 790
788 787 787 787 787 787 787 787 787 787 787 787 787 787 787 787 787 787 787 787 787 786 786 786 786 786 786 786 786 786 786 787 787 788 788 789 789 789 789 790 790 790 791 791 791 791 791 790 790 790 790 790 790 791 791 791 791 791 791 791 790 790 789 789 789 789 789 790 791
788 788 788 788 788 788 788 788 788 787 787 787 787 787 787 788 788 788 787 787 787 787 786 787 787 787 787 787 787 787 787 788 788 789 789 790 790 790 790 791 791 791 792 792 792 792 792 791 791 791 791 791 791 791 791 792 792 792 792 792 791 791 790 789 789 789 790 790 791
789 789 789 789 789 789 789 788 788 788 788 788 788 788 788 788 788 788 788 787 787 787 787 787 788 788 788 788 788 788 788 789 789 790 791 791 791 791 792 792 792 792 792 792 792 792 792 792 792 792 792 792 792 792 792 792 792 792 792 792 792 791 791 790 790 790 791 791 792
790 790 789 789 789 789 789 789 789 789 789 789 789 789 789 789 789 788 788 788 788 788 788 788 789 789 789 789 789 789 789 790 791 791 792 792 792 792 793 793 793 793 793 793 793 793 793 793 793 793 793 793 793 793 793 793 793 793 792 792 792 792 792 791 792 792 792 792 793
790 790 790 790 789 790 790 790 790 790 790 790 790 790 789 789 789 789 789 789 789 789 789 789 790 790 790 790 790 790 790 791 792 792 792 793 793 793 794 794 794 794 794 794 794 794 794 794 794 794 794 794 794 793 793 793 793 793 793 793 792 792 792 792 793 793 793 793 794
791 790 790 790 790 790 790 790 790 790 790 790 790 790 790 790 790 790 790 790 790 790 790 790 790 791 791 791 791 791 792 792 793 793 794 794 794 795 795 795 795 795 796 795 795 795 795 795 794 794 795 795 794 794 794 794 794 793 793 793 793 793 794 794 794 794 794 794 795
791 791 791 791 791 791 791 791 791 791 791 791 790 790 790 790 790 790 790 791 791 791 791 791 791 792 792 792 792 792 793 793 794 794 795 795 795 795 795 796 796 796 796 796 796 796 795 795 795 795 795 795 795 795 794 794 794 794 794 794 794 795 795 795 795 795 795 796 796
792 791 791 791 791 791 792 792 792 791 791 791 791 791 791 791 791 791 791 791 791 792 792 792 792 793 793 793 793 793 794 794 795 795 795 795 795 795 796 796 797 797 797 797 796 796 796 796 796 796 796 796 795 795 795 795 795 795 795 795 796 796 796 796 796 796 796 796 796
792 792 792 792 792 792 792 792 792 792 792 791 791 791 791 791 791 791 792 792 792 792 793 793 793 794 794 794 794 794 795 795 795 796 796 796 796 796 796 796 797 797 797 797 797 797 797 797 797 796 796 796 796 796 796 796 796 796 796 796 797 797 797 797 797 797 797 797 797
792 792 792 792 792 793 793 793 792 792 792 792 792 792 792 792 792 792 792 792 793 793 794 794 794 795 795 795 796 796 796 796 796 797 797 797 797 796 797 797 797 798 798 798 797 797 797 797 797 797 797 797 797 797 797 797 797 797 797 797 797 797 797 797 798 798 798 798 798
793 793 793 793 793 793 793 793 793 793 792 793 793 793 793 793 793 793 793 794 794 794 795 795 795 796 796 796 797 797 797 797 797 797 797 797 797 797 797 797 798 798 798 798 798 798 798 798 798 798 798 798 798 798 798 798 798 798 798 798 798 798 798 799 799 798 798 798 798
793 793 793 793 793 793 793 793 793 793 793 793 793 793 794 794 794 794 795 795 795 795 796 796 796 797 797 797 797 798 798 798 798 798 798 798 798 798 798 798 798 799 799 799 799 799 799 799 799 799 799 799 799 799 799 799 799 799 799 799 799 799 799 799 799 799 799 798 798
794 794 794 794 794 794 794 794 794 794 794 794 794 794 794 795 795 796 796 796 796 796 797 797 797 797 798 798 798 798 799 799 799 799 799 799 799 799 799 799 799 800 800 800 800 800 800 800 800 800 800 800 800 800 800 800 800 800 800 800 800 800 800 800 800 799 799 799 799
794 794 794 794 794 794 794 794 794 794 794 795 795 795 795 796 796 797 797 797 797 797 797 798 798 798 799 799 799 799 799 800 800 800 800 800 800 800 800 800 800 800 801 801 801 801 801 801 801 801 801 801 801 801 801 801 801 801 801 801 801 801 801 800 800 800 800 799 799
794 794 794 794 795 795 795 795 795 795 795 795 796 796 797 797 797 797 798 798 798 798 799 799 799 800 800 800 800 800 800 800 800 801 801 801 801 801 801 801 801 801 801 802 802 802 802 802 802 802 802 802 802 802 802 802 802 802 801 801 801 801 801 801 800 800 800 800 799
Wind_Speed
1 2 4 5 6 6 7 7 8 8 8 8 8 8 8 8 8 8 8 9 10 11 12 13 14 14 14 15 15 15 16 16 16 15 15 14 13 12 12 12 11 10 9 8 9 10 11 13 14 15 16 18 20 21 22 23 24 25 26 26 26 25 23 22 24 25 27 29 31
4 3 3 3 3 4 4 5 6 7 7 8 8 9 9 9 9 9 9 9 9 10 10 11 12 12 12 13 13 13 14 15 14 13 13 13 12 12 12 11 10 8 8 9 10 12 14 15 16 16 17 19 20 21 22 23 23 23 23 22 20 20 19 19 21 23 25 28 32
5 5 5 5 5 4 4 4 4 4 4 5 6 7 8 8 9 10 10 10 10 11 11 11 11 11 11 11 11 12 13 12 10 9 9 10 12 12 11 10 9 9 11 13 14 16 17 17 17 17 17 18 19 20 20 21 22 21 20 19 19 20 21 21 21 21 22 24 27
6 6 6 6 6 6 5 5 5 5 5 4 4 4 5 6 7 8 9 9 10 11 11 12 12 12 12 11 11 12 11 10 7 7 8 10 10 10 10 9 9 11 13 15 16 17 17 17 17 17 17 17 18 18 19 19 20 19 19 19 20 21 22 22 21 20 20 21 21
7 7 6 7 6 6 6 6 6 6 5 5 4 4 4 5 5 6 6 7 8 9 10 11 12 12 13 13 12 11 9 7 6 8 9 10 10 10 9 9 10 11 12 13 15 16 16 17 18 18 17 17 17 16 17 17 17 16 16 16 17 17 17 18 19 19 18 18 18
8 7 7 7 7 6 6 6 6 6 6 5 5 5 6 6 6 6 6 6 7 7 8 9 10 10 11 12 11 8 5 4 6 7 9 10 10 10 10 10 11 11 12 12 14 15 16 17 17 18 18 17 16 16 15 15 14 13 13 13 14 15 15 15 16 17 17 16 15
7 7 7 7 6 6 6 5 5 5 5 5 5 6 6 6 6 7 7 7 7 7 8 9 10 9 7 6 5 3 2 3 5 6 7 8 9 9 10 11 12 12 13 14 15 16 17 17 16 16 16 16 14 14 13 13 12 12 11 12 12 13 13 13 14 14 13 13 13
7 7 7 6 6 5 5 5 5 5 5 5 6 6 6 6 6 6 6 7 7 7 8 9 10 8 6 4 2 1 1 1 3 5 7 8 9 10 11 12 13 14 15 15 16 17 17 16 15 14 14 13 12 11 11 11 11 10 10 10 11 11 12 12 12 12 11 11 11
7 7 6 6 6 5 5 5 5 5 6 6 7 7 7 7 7 7 7 7 7 7 6 7 8 6 4 4 4 3 2 2 3 4 6 7 8 9 11 13 14 15 15 15 15 15 14 14 13 13 12 11 10 10 10 10 10 9 9 10 10 11 12 12 12 12 11 11 12
7 7 7 6 6 6 6 6 6 6 7 8 9 8 8 7 7 7 7 7 6 6 5 6 6 5 3 2 0 1 1 2 3 4 5 6 8 9 10 12 12 13 13 13 13 12 11 11 10 11 11 11 10 10 10 10 9 9 9 10 10 10 11 11 11 11 11 12 12
7 7 7 7 7 7 6 7 8 8 9 9 8 8 7 6 6 6 6 5 5 5 5 5 5 4 3 3 2 2 3 3 4 5 6 7 9 9 10 10 10 10 9 9 8 8 8 8 9 9 9 9 9 9 10 10 10 10 10 10 10 10 10 10 10 10 10 11 11
8 8 8 8 8 8 8 9 9 9 8 8 7 7 7 7 7 6 5 5 5 5 5 4 4 4 4 4 4 5 6 7 7 8 8 8 8 9 9 8 8 8 7 6 6 6 6 7 8 8 8 9 9 10 10 11 11 11 10 10 9 9 9 9 9 9 9 9 9
10 10 10 9 9 9 9 9 9 8 8 8 8 8 8 8 7 7 6 5 5 5 4 4 5 5 5 5 6 6 7 7 7 7 7 6 7 7 7 7 7 6 6 5 5 5 6 6 7 8 8 9 9 9 10 11 11 11 11 10 9 8 8 8 8 8 8 8 8
11 11 11 10 10 9 9 9 9 9 8 8 8 8 8 8 8 7 7 6 6 5 5 5 5 5 5 5 5 4 4 4 4 4 4 4 5 5 5 5 5 5 5 5 5 5 5 5 6 6 7 8 8 9 9 10 11 11 10 9 8 7 7 7 7 7 7 7 8
12 12 11 10 10 10 10 10 10 9 9 9 9 9 9 9 9 9 8 7 6 6 5 5 5 5 5 5 5 4 4 4 4 4 4 4 4 4 4 4 5 5 4 4 4 3 3 3 4 5 5 6 7 7 8 8 9 9 9 8 7 6 6 6 6 6 7 7 7
13 12 12 11 11 11 11 11 11 10 10 10 9 9 9 9 9 8 8 8 7 6 6 6 7 6 6 6 6 5 5 5 5 5 5 5 5 5 5 5 4 4 4 3 3 2 2 2 2 3 4 4 5 5 6 7 7 7 7 6 5 4 5 5 5 6 7 7 7
13 13 13 13 13 13 12 12 11 10 10 10 9 9 8 8 8 8 8 8 7 7 7 7 7 7 7 7 7 6 6 7 6 6 6 6 5 5 5 5 4 4 3 3 2 1 0 0 1 1 2 2 3 3 4 5 5 5 5 5 4 4 5 5 6 7 7 7 7
13 13 13 13 13 13 12 11 11 10 10 9 9 8 7 7 8 8 8 8 8 8 8 8 7 7 8 8 8 7 7 8 7 7 6 6 5 5 5 5 4 3 3 2 1 1 1 1 1 1 1 2 2 3 4 4 5 5 5 5 5 6 6 7 7 8 8 8 8
13 13 13 13 13 12 12 11 11 10 10 9 8 8 7 7 8 8 8 8 8 8 8 8 8 7 8 8 8 7 7 7 7 7 6 6 5 5 5 5 4 3 3 2 2 3 3 3 3 3 3 3 3 4 4 5 5 5 5 6 7 8 8 9 9 9 9 9 9
13 13 13 12 12 12 12 11 11 10 10 9 9 9 9 8 8 8 8 8 8 7 8 8 8 8 7 7 7 7 7 7 7 7 7 6 6 6 6 5 5 4 4 4 4 5 5 5 5 4 5 5 5 6 6 6 6 7 8 8 9 10 10 10 10 10 10 10 10
13 12 12 11 11 11 11 11 10 10 10 10 11 11 11 10 10 9 9 8 8 7 8 8 8 8 8 8 8 8 8 8 8 8 8 8 8 7 7 6 6 6 6 6 6 6 7 7 7 7 7 8 8 9 9 10 10 11 11 12 12 12 12 12 12 12 12 11 11
12 11 10 10 10 10 10 10 10 11 11 12 12 12 12 12 11 11 10 9 9 8 9 9 9 10 10 10 10 10 9 9 9 9 9 9 9 8 7 7 6 7 7 7 7 8 8 8 9 10 10 11 11 11 12 12 13 13 13 14 14 14 13 13 13 13 12 12 12
11 10 10 10 10 10 11 11 12 12 13 13 13 13 13 13 13 12 11 11 11 11 11 12 12 12 12 12 12 11 11 11 10 10 10 10 10 9 9 9 8 9 9 8 8 9 9 10 11 12 12 13 13 13 12 13 13 14 14 14 14 14 14 13 13 13 12 12 11
10 10 10 11 11 12 12 13 13 14 14 14 14 14 14 14 14 14 14 14 14 14 14 14 14 14 14 13 13 12 12 12 12 12 12 11 11 12 12 12 11 11 10 9 8 8 10 11 12 13 13 13 13 13 13 13 13 13 13 14 14 14 13 13 12 12 11 11 10
10 11 11 12 13 13 13 13 14 14 14 14 14 14 14 14 14 15 15 15 16 16 16 16 16 15 15 15 14 14 14 14 14 15 15 15 15 15 15 15 14 13 12 10 9 8 8 10 11 12 13 13 13 13 12 12 12 12 12 12 13 13 13 12 11 10 10 9 9
11 11 12 12 13 13 13 13 13 13 13 13 13 13 13 14 14 14 15 15 16 16 16 17 17 16 16 17 16 17 17 17 17 17 18 18 17 17 17 16 16 14 13 12 11 10 9 9 10 11 12 13 13 13 12 12 12 11 11 11 11 11 11 11 11 10 9 8 7
11 12 12 12 12 13 13 13 13 13 13 13 13 13 13 13 13 14 14 15 15 16 17 18 18 18 18 19 19 19 19 19 19 19 19 19 18 18 17 16 15 14 13 12 11 11 11 10 9 9 10 11 12 12 12 12 11 11 11 11 10 10 11 11 10 10 9 8 6
12 12 11 12 12 12 12 12 12 13 13 13 13 13 13 13 14 14 15 15 16 17 18 18 18 19 19 20 20 20 20 20 20 19 19 19 18 18 18 17 15 14 13 12 11 11 11 10 8 8 8 9 10 11 11 11 11 11 11 10 10 10 10 10 9 9 8 7 6
12 12 11 11 12 12 12 12 13 13 13 13 14 14 15 15 15 15 16 16 17 18 18 18 18 19 19 19 19 20 20 20 20 20 20 20 20 19 18 17 15 14 12 11 11 11 11 10 9 8 8 8 9 10 11 11 11 11 11 10 10 10 9 9 8 8 7 6 6
12 12 12 12 12 12 12 12 13 13 14 14 15 15 16 16 17 17 17 18 18 18 19 18 18 18 18 19 19 20 20 20 20 20 20 20 20 19 17 16 15 14 12 12 12 12 11 10 9 9 9 9 10 10 11 11 11 11 11 11 10 9 9 9 8 8 7 7 6
12 12 12 13 13 13 13 13 13 14 15 15 16 16 17 17 18 18 19 19 19 19 18 18 19 19 20 20 21 21 21 21 21 20 20 19 18 18 17 15 14 13 12 12 12 12 11 11 10 10 9 9 9 10 10 10 10 10 10 10 9 9 8 8 8 8 8 7 7
12 12 13 13 13 13 13 13 14 15 15 16 17 17 18 18 18 18 18 18 18 18 19 19 20 21 21 22 22 22 21 21 20 20 19 18 18 17 16 16 15 14 13 13 13 12 12 11 10 9 9 9 9 9 9 9 9 9 10 9 9 8 8 8 8 8 7 7 6
12 13 14 14 14 14 14 14 15 15 16 17 17 18 18 18 18 17 17 18 18 19 20 21 21 21 21 21 21 21 20 19 18 18 17 17 17 17 17 16 15 14 13 13 13 12 11 10 9 9 9 8 8 9 9 9 9 10 10 10 9 9 9 9 8 8 8 8 8
13 13 14 14 15 15 15 16 16 16 17 17 18 18 18 18 18 18 19 19 20 20 20 20 20 20 20 19 19 19 18 17 16 16 16 16 17 17 17 16 15 13 12 12 12 11 11 10 9 9 9 9 9 9 9 10 10 11 11 11 11 11 11 10 10 10 10 10 10
12 13 14 15 15 15 16 16 16 17 17 17 17 18 18 19 19 19 20 20 20 20 19 19 18 18 18 17 16 16 16 15 15 15 15 15 15 16 16 16 14 13 12 12 12 11 10 10 9 9 9 9 10 10 11 12 12 13 13 13 13 13 12 12 11 10 10 9 8
12 13 14 15 15 15 15 16 16 17 17 17 17 17 18 18 19 19 19 19 19 19 19 18 17 17 16 16 15 15 15 15 15 14 14 14 15 16 16 16 15 13 13 12 12 11 11 10 10 10 11 11 12 12 13 14 14 14 14 13 13 12 11 10 9 8 7 5 4
13 13 14 14 15 15 15 16 16 16 17 17 17 17 17 17 18 18 17 18 18 18 18 17 17 16 16 16 16 15 15 14 15 15 15 15 16 17 17 16 15 14 13 13 13 13 13 13 13 13 13 14 14 14 14 14 14 13 13 12 11 10 9 7 6 6 6 5 4
13 14 14 14 15 15 15 16 16 16 16 16 16 16 17 17 17 16 16 16 17 17 17 16 16 16 16 16 16 16 15 15 15 15 16 16 17 17 17 17 16 15 14 14 14 14 14 14 14 14 14 14 14 13 13 13 12 11 10 9 9 8 7 6 6 7 8 8 6
13 13 14 14 15 15 15 16 16 16 16 16 16 16 16 16 16 15 14 14 15 16 16 16 16 16 16 16 16 16 16 15 15 15 16 16 16 17 17 17 16 15 14 13 13 13 12 12 11 11 11 12 11 11 10 10 9 9 8 8 7 7 6 7 7 7 8 8 8
13 13 14 15 15 15 15 16 16 16 16 16 16 16 15 15 15 14 14 13 14 14 15 16 16 15 15 15 16 16 16 15 15 15 15 15 15 16 16 15 14 13 12 11 10 10 9 9 8 8 8 9 8 8 7 7 7 7 7 7 6 6 6 6 6 6 6 6 7
13 14 15 16 16 16 16 16 16 15 15 15 15 15 14 14 14 13 13 13 13 14 14 14 14 14 13 13 14 14 15 15 14 14 14 14 14 14 14 13 13 12 10 9 9 8 8 8 7 7 7 7 7 6 6 6 6 6 6 6 6 5 5 5 6 6 6 6 6
Wind_Direction
320 296 287 281 278 276 275 273 271 269 269 270 271 271 272 273 273 271 268 266 264 262 261 260 259 259 259 259 259 260 260 260 261 264 268 269 268 264 259 258 261 266 271 279 281 279 274 267 261 258 258 258 257 256 257 258 261 263 265 265 263 261 256 247 241 245 253 261 264
48 36 14 350 328 312 303 296 289 284 279 277 276 274 274 274 276 277 277 276 274 271 269 266 264 262 260 260 260 261 262 262 264 269 271 266 257 250 249 253 262 275 292 303 307 306 302 296 290 281 271 264 261 260 262 264 265 266 265 264 265 266 262 251 245 248 256 263 267
50 46 42 36 31 25 17 8 356 341 326 313 302 292 285 281 281 281 281 280 279 278 277 276 273 270 268 267 267 269 270 269 268 266 260 251 247 247 250 258 271 289 301 307 310 311 311 308 303 292 279 270 265 264 264 266 266 265 265 267 272 276 274 264 255 252 256 261 262
43 41 40 38 37 35 33 28 21 13 5 354 341 327 313 303 296 292 288 286 285 285 284 282 280 277 274 273 276 282 284 278 265 248 241 243 247 253 262 274 290 302 308 310 310 310 308 306 301 293 284 276 271 271 272 270 269 269 271 276 279 278 274 267 260 257 258 261 255
37 35 35 32 30 29 28 25 20 16 11 5 359 351 341 332 322 314 306 301 299 296 294 292 288 282 276 272 279 291 295 279 251 236 238 246 254 264 277 291 300 306 308 308 306 304 301 299 297 294 290 286 281 278 276 274 273 274 276 278 276 271 265 261 260 262 264 261 256
31 32 33 30 26 23 20 16 12 8 4 1 357 352 347 342 337 332 327 323 318 316 317 320 316 302 287 277 279 289 294 263 240 238 243 251 261 272 286 297 303 305 303 300 296 294 293 293 294 294 292 290 286 281 276 274 273 273 273 271 267 263 260 260 263 266 268 265 260
27 28 29 26 22 18 15 9 5 360 356 352 349 347 345 345 344 343 341 336 331 328 332 343 350 347 330 304 289 282 272 256 253 255 258 264 273 285 296 303 305 303 298 294 290 289 289 291 292 293 291 288 282 276 273 271 269 267 265 263 263 263 264 265 267 267 265 261 256
25 25 24 21 16 12 9 4 359 355 352 352 355 359 4 8 11 9 5 358 351 343 342 352 3 14 26 41 67 111 155 228 258 265 269 275 284 293 299 302 300 297 294 291 290 290 290 291 292 291 288 283 277 271 267 266 264 262 260 261 265 269 271 270 269 266 261 255 250
24 23 20 16 12 9 6 3 1 2 9 20 27 31 34 37 38 34 29 20 12 1 354 359 5 13 32 64 88 111 142 191 239 259 269 277 286 292 295 295 294 293 293 293 293 293 292 290 288 284 280 274 268 263 262 261 260 260 260 262 266 270 271 270 267 263 259 254 249
26 25 22 18 15 12 11 13 22 34 44 48 48 46 46 47 46 44 38 30 22 15 10 4 4 4 7 14 13 205 216 234 254 271 282 289 294 295 295 294 294 295 296 296 296 294 291 285 278 272 268 265 260 258 258 259 258 257 258 260 262 263 264 264 262 259 255 252 247
34 34 31 28 25 25 31 43 52 57 59 56 50 45 41 37 36 37 36 32 30 30 25 12 5 356 342 324 314 305 300 299 302 306 308 308 306 304 302 301 301 302 303 301 298 292 283 276 268 263 260 260 259 258 258 258 255 252 251 251 253 255 255 256 256 253 249 247 244
44 44 43 42 42 47 55 61 63 61 57 51 44 36 27 21 19 18 21 24 31 33 29 19 10 356 343 341 342 338 331 327 325 325 323 320 316 311 308 306 305 306 305 303 295 287 278 272 268 265 264 265 264 261 258 256 252 247 241 239 241 244 247 249 250 248 246 244 241
51 51 52 53 56 60 64 64 62 56 49 43 36 29 22 17 12 11 15 22 30 32 26 20 16 10 2 357 351 345 341 337 335 335 334 330 324 319 316 313 310 309 306 299 295 292 288 282 279 275 272 270 266 262 257 254 250 243 235 228 226 227 232 239 244 245 243 241 236
56 55 56 58 61 64 65 62 57 50 44 38 34 31 28 25 22 23 27 33 38 40 38 30 27 23 17 13 8 4 2 359 357 357 355 347 337 333 329 327 323 321 316 310 308 306 303 296 290 284 279 272 266 259 254 251 246 241 234 224 214 209 214 226 236 239 237 230 225
57 57 57 59 62 63 62 59 54 49 44 42 39 38 39 41 40 40 43 47 48 50 52 52 53 51 47 45 43 41 38 36 32 26 16 8 360 356 352 348 343 339 336 331 326 319 311 302 294 289 281 272 263 256 249 244 240 236 230 220 210 200 199 209 220 226 225 219 210
58 58 58 59 61 62 61 59 55 51 49 48 46 46 49 53 55 55 56 58 59 61 66 68 69 68 66 61 53 47 44 41 37 32 27 24 19 15 12 8 6 3 357 351 340 326 308 296 292 287 279 267 258 249 240 233 227 222 216 208 199 187 183 189 196 200 203 204 197
59 59 58 59 60 61 61 59 57 54 52 50 49 50 55 62 67 69 69 69 70 71 72 73 72 71 70 65 55 47 44 42 38 35 32 29 26 25 23 24 24 20 16 10 3 345 292 255 269 273 263 250 235 225 217 210 204 198 193 183 167 156 157 164 171 176 179 182 178
59 59 59 59 59 59 58 57 55 53 52 50 50 52 58 67 72 75 76 77 76 77 77 76 74 72 69 64 55 46 42 43 42 40 37 35 32 32 35 38 36 34 32 34 57 102 119 122 129 147 169 174 171 175 178 175 172 167 160 150 141 138 141 147 154 160 164 164 161
57 57 57 58 58 58 57 54 52 51 51 51 52 55 60 65 69 72 74 76 78 79 78 76 73 69 64 59 55 50 48 50 54 56 56 53 52 53 55 58 60 59 62 75 93 104 105 103 104 113 127 137 142 149 152 151 146 141 136 130 127 128 131 136 142 148 153 153 151
54 54 55 56 57 58 56 54 52 52 53 54 56 59 61 62 63 65 68 71 75 76 76 74 72 69 66 63 64 65 65 65 69 72 74 74 74 74 76 79 83 86 88 94 99 100 99 98 99 105 114 121 125 128 129 127 123 120 117 115 116 119 123 128 132 136 137 138 137
52 53 54 55 57 59 59 59 58 59 60 60 60 61 61 60 61 64 67 70 72 73 74 75 75 76 76 77 79 81 80 79 80 82 83 84 83 82 83 87 92 95 96 97 99 99 100 101 104 107 110 112 114 115 115 114 113 111 111 111 114 117 120 124 126 126 125 124 122
51 53 55 57 60 63 65 66 66 67 67 66 64 62 62 63 66 69 72 74 73 75 77 79 81 83 84 85 86 88 88 89 88 88 88 88 87 85 84 85 90 93 94 96 100 102 104 106 108 111 111 111 111 112 113 114 115 114 114 114 116 118 121 123 123 123 122 120 117
52 55 58 62 65 68 70 70 70 70 68 67 66 66 67 69 72 75 77 78 79 81 83 84 85 85 86 87 88 89 90 90 90 90 89 89 89 87 86 84 83 84 87 92 100 106 109 110 111 113 114 113 113 113 114 114 115 115 114 114 115 117 119 120 120 120 120 118 115
56 59 62 65 68 69 70 70 69 68 67 66 67 68 70 73 75 78 79 81 82 84 85 86 87 88 88 89 89 88 88 88 88 87 87 87 87 87 85 81 78 76 78 83 93 104 112 115 116 116 117 117 116 114 114 114 115 115 115 114 114 115 115 115 117 117 116 116 114
59 62 64 66 67 69 69 69 68 67 66 67 68 69 71 73 75 77 79 80 82 83 85 86 88 89 90 89 88 86 85 85 86 86 86 85 84 82 81 78 76 75 75 78 84 95 106 116 121 122 121 120 118 117 116 117 118 119 119 118 117 116 114 113 112 112 112 112 113
62 63 64 66 68 68 68 69 69 69 70 70 71 71 72 74 77 79 80 81 83 84 85 86 86 87 88 88 86 85 84 84 85 86 86 85 83 82 80 80 79 79 79 79 83 88 96 107 118 124 126 124 122 119 118 117 119 121 121 120 119 117 114 111 108 106 106 106 109
67 66 66 68 69 70 70 71 73 73 74 75 75 76 77 79 81 83 84 85 86 87 87 87 87 87 87 86 86 85 84 84 85 85 86 86 85 85 84 83 82 81 80 81 83 88 93 101 112 124 130 131 129 126 123 121 121 121 120 117 116 113 111 107 105 104 104 106 109
73 72 71 71 72 72 74 75 76 77 78 80 81 82 84 85 86 86 87 88 89 89 88 88 88 87 87 86 86 86 86 87 87 87 87 88 88 87 86 85 84 83 82 83 86 89 93 97 108 121 131 135 134 131 127 124 121 119 117 114 111 109 107 105 105 106 108 112 118
81 80 79 77 76 77 78 79 80 81 83 85 86 87 88 89 88 89 89 90 90 90 89 89 89 89 88 88 88 89 89 89 90 90 90 90 89 88 88 87 86 84 84 84 87 89 92 96 103 113 123 128 128 126 124 122 120 117 114 110 108 106 105 105 106 109 112 117 122
86 87 85 83 82 82 82 83 84 86 88 89 89 90 90 90 90 90 91 91 91 91 91 92 91 90 89 90 91 91 91 91 92 93 93 92 91 90 89 88 86 84 82 83 86 89 91 94 100 108 115 119 120 120 120 119 117 114 111 108 106 104 104 105 107 109 112 115 117
88 89 88 87 86 85 85 87 89 90 91 91 91 91 90 90 90 91 91 92 92 92 93 93 93 92 93 94 94 94 94 94 95 95 94 92 91 90 89 86 83 81 80 83 86 88 90 94 99 106 111 113 115 116 117 116 113 110 107 105 103 103 104 105 107 108 109 110 110
88 89 89 89 88 88 89 90 91 93 93 93 93 93 92 91 91 91 91 92 92 92 93 94 95 95 96 97 97 97 96 96 96 95 95 94 92 90 87 84 82 81 81 84 86 87 89 93 97 102 105 107 108 109 110 109 106 103 101 100 101 101 103 105 105 104 102 99 95
88 89 90 90 91 91 92 93 94 95 96 96 95 94 93 93 93 92 92 92 93 95 96 98 98 99 99 99 100 99 99 98 98 98 98 97 95 93 90 86 84 83 84 85 86 87 88 91 95 98 101 102 102 103 103 101 100 99 99 98 97 95 94 93 90 87 82 76 70
91 92 93 93 93 94 95 95 96 97 97 97 96 95 95 94 93 92 92 95 98 100 102 103 104 104 104 105 105 105 104 104 103 102 102 101 100 97 94 91 89 87 86 86 87 87 88 90 94 98 100 101 100 100 100 98 97 96 94 92 88 84 80 76 73 69 64 60 55
95 96 96 96 96 97 97 98 98 99 98 97 97 97 97 96 95 95 97 101 104 106 107 108 109 109 109 108 108 107 106 105 104 104 104 104 103 100 97 94 91 88 86 86 87 87 88 91 93 96 97 97 97 97 95 94 92 89 86 82 78 73 69 64 61 58 56 54 51
100 100 100 100 100 100 100 100 100 100 99 99 99 99 99 99 99 102 106 110 111 111 111 112 113 112 110 109 106 104 103 103 104 104 103 103 102 100 98 94 91 87 84 84 85 86 86 87 88 89 90 90 90 89 88 86 84 81 78 74 70 67 62 59 54 49 46 48 55
105 106 105 104 103 102 102 102 102 101 100 100 101 101 102 102 104 109 114 118 117 116 116 116 116 115 113 109 105 102 100 100 102 103 102 101 99 98 96 93 89 85 82 81 82 82 81 81 81 81 81 81 81 80 79 78 76 74 71 69 67 65 62 57 48 38 33 34 43
110 111 110 107 106 104 104 103 102 101 101 102 104 105 106 108 110 114 119 123 122 121 121 121 120 117 114 109 105 102 100 100 100 101 101 99 98 96 94 92 88 85 81 79 77 76 75 74 72 72 71 71 71 71 70 70 69 69 69 68 67 65 59 49 38 31 30 30 32
113 114 113 111 109 108 106 104 103 103 104 106 107 109 111 113 115 118 123 126 126 126 125 123 122 118 114 110 107 104 102 101 100 99 99 98 96 95 93 91 88 84 81 77 74 72 70 68 65 63 61 60 61 63 63 65 66 68 68 67 64 60 52 43 37 32 30 29 29
121 120 118 115 113 111 109 108 107 108 109 111 112 113 115 117 119 122 126 127 125 125 125 124 121 118 114 111 108 106 105 102 100 99 98 97 95 93 91 90 88 85 81 77 73 70 68 66 63 59 55 55 57 61 63 65 68 69 67 64 61 56 50 44 39 35 31 27 25
122 120 117 115 113 112 110 109 109 110 111 112 114 116 118 121 122 124 125 123 122 121 121 121 120 118 115 111 108 106 105 102 100 98 97 96 93 90 87 86 86 85 84 80 75 72 69 66 63 60 57 57 61 66 69 72 73 72 68 62 56 50 47 43 41 39 34 28 24